Find Starlink 32230

NORAD ID: 60366 Int'l Des: 2024-138 Owner: SPXS Country: US Constellation: starlink operational
LEOCIRCULAR

Current View

Loading 3D Globe...

About Starlink 32230

Starlink 32230 (NORAD 60366) is a starlink constellation satellite (v2 mini) launched Aug 4, 2024 by SPXS of US. It operates in LEO, CIRCULAR orbit with a mass of 730.00 kg.

About Starlink 32230

Description loading...

Upcoming Passes

Passes for default location (London). Set your location on the main map for personalized predictions.

Altitude History

Loading altitude history...

Two-Line Element Set

1 60366U 24138M 26175.27413904 .00000780 00000-0 38447-4 0 9995
2 60366 53.1589 174.7109 0001125 83.4167 276.6961 15.30195494106949
Epoch: Jun 24, 2026 • Age: 21 hours

Current Status

Altitude 480.6 km
Velocity 7.63 km/s
Sub-Earth Point 51.14°N, 41.39°W
Launch Date Aug 4, 2024
Age 1.8 years
Type internet

Technical Details

Classification Payload
Mass 730.00 kg
Dry Mass 700.00 kg
Total Mass 730.00 kg
Length 0.30 m
Diameter 4.10 m
Span 29.00 m
Shape Box + pan
Manufacturer SPXS
Bus Type Starlink V2M
Phase Status In Orbit
Owner/State SPXS/US

Most Searched